TimeEDT,TemperatureF,Dew PointF,Humidity,Sea Level PressureIn,VisibilityMPH,Wind Direction,Wind SpeedMPH,Gust SpeedMPH,PrecipitationIn,Events,Conditions,WindDirDegrees,DateUTC
12:15 AM,55.4,53.6,94,30.10,10.0,North,10.4,-,0.00,,Overcast,10,2012-10-09 04:15:00
12:35 AM,55.4,53.6,94,30.09,10.0,North,11.5,-,0.00,,Overcast,360,2012-10-09 04:35:00
12:55 AM,55.4,53.6,94,30.09,10.0,North,10.4,17.3,0.00,,Overcast,360,2012-10-09 04:55:00
1:15 AM,55.4,53.6,94,30.08,10.0,North,8.1,-,0.00,,Overcast,360,2012-10-09 05:15:00
1:35 AM,55.4,53.6,94,30.09,10.0,NNW,9.2,16.1,0.00,,Overcast,340,2012-10-09 05:35:00
1:55 AM,55.4,53.6,94,30.08,10.0,NNW,10.4,-,0.00,,Overcast,340,2012-10-09 05:55:00
2:15 AM,55.4,53.6,94,30.08,10.0,NNW,8.1,-,0.00,,Overcast,340,2012-10-09 06:15:00
2:55 AM,55.4,53.6,94,30.08,9.0,NW,6.9,-,0.00,,Overcast,320,2012-10-09 06:55:00
3:15 AM,55.4,53.6,94,30.08,4.0,NNW,6.9,-,0.00,,Overcast,340,2012-10-09 07:15:00
3:55 AM,55.4,53.6,94,30.07,2.5,NW,6.9,-,0.00,,Overcast,320,2012-10-09 07:55:00
4:15 AM,55.4,53.6,94,30.07,3.0,NW,8.1,-,0.00,,Overcast,320,2012-10-09 08:15:00
4:35 AM,55.4,53.6,94,30.07,3.0,NNW,6.9,-,0.00,,Overcast,330,2012-10-09 08:35:00
4:55 AM,55.4,53.6,94,30.07,2.5,NNW,9.2,-,0.00,,Overcast,330,2012-10-09 08:55:00
5:15 AM,55.4,53.6,94,30.07,3.0,NNW,8.1,-,0.00,,Overcast,330,2012-10-09 09:15:00
5:35 AM,55.4,53.6,94,30.08,3.0,NNW,8.1,-,0.00,,Overcast,330,2012-10-09 09:35:00
5:55 AM,55.4,53.6,94,30.08,5.0,NNW,11.5,-,0.00,,Overcast,340,2012-10-09 09:55:00
6:15 AM,55.4,53.6,94,30.08,2.0,NNW,10.4,18.4,0.00,,Overcast,330,2012-10-09 10:15:00
6:35 AM,55.4,53.6,94,30.08,4.0,NNW,11.5,18.4,0.00,,Overcast,340,2012-10-09 10:35:00
6:55 AM,55.4,53.6,94,30.08,4.0,NNW,11.5,18.4,0.00,,Overcast,340,2012-10-09 10:55:00
7:15 AM,55.4,53.6,94,30.10,6.0,North,15.0,19.6,0.00,,Overcast,350,2012-10-09 11:15:00
7:35 AM,55.4,53.6,94,30.11,5.0,NNW,10.4,-,0.00,,Overcast,330,2012-10-09 11:35:00
7:55 AM,55.4,53.6,94,30.11,8.0,NNW,12.7,-,0.00,,Overcast,330,2012-10-09 11:55:00
8:15 AM,55.4,53.6,94,30.11,8.0,NNW,10.4,16.1,0.00,,Overcast,330,2012-10-09 12:15:00
8:35 AM,55.4,53.6,94,30.11,9.0,North,12.7,16.1,0.00,,Overcast,350,2012-10-09 12:35:00
8:55 AM,55.4,53.6,94,30.12,10.0,NNW,11.5,-,0.00,,Overcast,340,2012-10-09 12:55:00
9:15 AM,55.4,51.8,88,30.13,10.0,NNW,12.7,16.1,0.00,,Overcast,330,2012-10-09 13:15:00
9:35 AM,55.4,51.8,88,30.13,10.0,NNW,12.7,-,0.00,,Overcast,340,2012-10-09 13:35:00
9:55 AM,55.4,51.8,88,30.14,9.0,NNW,12.7,18.4,0.00,,Overcast,340,2012-10-09 13:55:00
10:15 AM,55.4,51.8,88,30.14,10.0,NNW,12.7,18.4,0.00,,Overcast,340,2012-10-09 14:15:00
10:35 AM,57.2,51.8,82,30.14,10.0,NNW,12.7,17.3,0.00,,Overcast,340,2012-10-09 14:35:00
10:55 AM,57.2,53.6,88,30.13,10.0,NNW,12.7,-,0.00,,Overcast,340,2012-10-09 14:55:00
11:15 AM,57.2,53.6,88,30.14,10.0,NNW,11.5,-,0.00,,Overcast,340,2012-10-09 15:15:00
11:35 AM,57.2,53.6,88,30.14,10.0,North,11.5,17.3,0.00,,Overcast,350,2012-10-09 15:35:00
11:55 AM,57.2,51.8,82,30.14,10.0,NNW,9.2,-,0.00,,Overcast,340,2012-10-09 15:55:00
12:15 PM,60.8,51.8,72,30.13,10.0,NNW,11.5,-,0.00,,Overcast,340,2012-10-09 16:15:00
12:35 PM,60.8,53.6,77,30.13,10.0,NW,12.7,-,0.00,,Overcast,320,2012-10-09 16:35:00
12:55 PM,62.6,53.6,72,30.13,10.0,NNW,11.5,-,0.00,,Overcast,330,2012-10-09 16:55:00
1:15 PM,62.6,53.6,72,30.12,10.0,NW,10.4,-,0.00,,Overcast,320,2012-10-09 17:15:00
1:35 PM,64.4,53.6,68,30.12,10.0,North,10.4,-,0.00,,Overcast,350,2012-10-09 17:35:00
1:55 PM,64.4,53.6,68,30.11,10.0,North,6.9,-,0.00,,Mostly Cloudy,350,2012-10-09 17:55:00
2:15 PM,64.4,53.6,68,30.10,10.0,North,9.2,-,0.00,,Mostly Cloudy,350,2012-10-09 18:15:00
2:35 PM,68.0,53.6,60,30.10,10.0,NNW,12.7,-,0.00,,Scattered Clouds,340,2012-10-09 18:35:00
2:55 PM,68.0,53.6,60,30.09,10.0,NW,11.5,-,0.00,,Scattered Clouds,320,2012-10-09 18:55:00
3:15 PM,69.8,53.6,56,30.08,10.0,North,6.9,-,0.00,,Partly Cloudy,350,2012-10-09 19:15:00
3:35 PM,69.8,53.6,56,30.08,10.0,North,6.9,-,0.00,,Partly Cloudy,350,2012-10-09 19:35:00
3:55 PM,69.8,53.6,56,30.09,10.0,North,6.9,-,0.00,,Clear,350,2012-10-09 19:55:00
4:15 PM,69.8,53.6,56,30.09,10.0,NNW,8.1,-,0.00,,Clear,330,2012-10-09 20:15:00
4:35 PM,69.8,53.6,56,30.08,10.0,North,6.9,-,0.00,,Clear,350,2012-10-09 20:35:00
4:55 PM,68.0,53.6,60,30.08,10.0,NW,5.8,-,0.00,,Clear,320,2012-10-09 20:55:00
5:15 PM,68.0,53.6,60,30.08,10.0,NW,6.9,-,0.00,,Clear,320,2012-10-09 21:15:00
5:35 PM,68.0,53.6,60,30.08,10.0,NNW,6.9,-,0.00,,Clear,340,2012-10-09 21:35:00
5:55 PM,68.0,53.6,60,30.08,10.0,North,5.8,-,0.00,,Clear,350,2012-10-09 21:55:00
6:15 PM,66.2,53.6,64,30.08,10.0,North,3.5,-,0.00,,Clear,350,2012-10-09 22:15:00
6:35 PM,64.4,53.6,68,30.08,10.0,NNW,5.8,-,0.00,,Clear,340,2012-10-09 22:35:00
6:55 PM,62.6,53.6,72,30.08,10.0,NNW,4.6,-,0.00,,Clear,340,2012-10-09 22:55:00
7:15 PM,60.8,53.6,77,30.08,10.0,NNW,3.5,-,0.00,,Clear,340,2012-10-09 23:15:00
7:35 PM,60.8,53.6,77,30.09,10.0,Calm,Calm,-,0.00,,Clear,0,2012-10-09 23:35:00
7:55 PM,59.0,53.6,82,30.09,10.0,North,5.8,-,0.00,,Clear,360,2012-10-09 23:55:00
8:15 PM,57.2,53.6,88,30.10,10.0,North,5.8,-,0.00,,Clear,10,2012-10-10 00:15:00
8:35 PM,57.2,53.6,88,30.10,10.0,North,4.6,-,0.00,,Clear,10,2012-10-10 00:35:00
8:55 PM,57.2,53.6,88,30.11,10.0,Calm,Calm,-,0.00,,Clear,0,2012-10-10 00:55:00
9:15 PM,55.4,53.6,94,30.12,10.0,Calm,Calm,-,0.00,,Clear,0,2012-10-10 01:15:00
9:35 PM,55.4,53.6,94,30.13,10.0,NNE,3.5,-,0.00,,Partly Cloudy,20,2012-10-10 01:35:00
9:55 PM,57.2,53.6,88,30.13,10.0,NNE,6.9,-,0.00,,Partly Cloudy,30,2012-10-10 01:55:00
10:15 PM,55.4,53.6,94,30.13,10.0,NNE,4.6,-,0.00,,Clear,30,2012-10-10 02:15:00
10:35 PM,55.4,53.6,94,30.13,10.0,Calm,Calm,-,0.00,,Clear,0,2012-10-10 02:35:00
10:55 PM,55.4,53.6,94,30.13,10.0,NE,4.6,-,0.00,,Clear,40,2012-10-10 02:55:00
11:15 PM,55.4,51.8,88,30.13,10.0,NE,4.6,-,0.00,,Clear,50,2012-10-10 03:15:00
11:35 PM,55.4,51.8,88,30.13,10.0,NE,4.6,-,0.00,,Clear,50,2012-10-10 03:35:00
11:55 PM,53.6,51.8,94,30.13,10.0,Calm,Calm,-,0.00,,Clear,0,2012-10-10 03:55:00